DELTA 1 DEB, 7140

Orbit data source: Space-Track

DELTA 1 DEB, 7140 is space debris in SSO originally from a launch on Tue, 06 Nov 1973 UTC launched from the Air Force Western Test Range (AFWTR). Debris objects in space refer to the collection of defunct objects orbiting the Earth. Examples of debris include non-operational satellites, rocket bodies, and fragments generated from explosions, collisions, or faulty payload assembly.

Loading next visibility...
Identifier
7140, 1973-086DE
Orbit
SSO
Country
Flag of USUS
Related business
Manufacturer
Unknown
Mission
Spacecraft
Bus & Motor
Unknown
Mass
Unknown
Launch date (UTC)
1973-11-06 (53 years ago)
Launch vehicle
Unknown
Launch site
Air Force Western Test Range (AFWTR)
Object type
Payload
Rocket body
Debris
Shape & HBR
Unknown shape, 0.1 m
Radar Cross Section
Medium (>0.1 m² and <1 m²)

Expand to show TLE details & history
Last TLE update: 18 hours ago

TLE from 18 hours ago
0 DELTA 1 DEB
1 07140U 73086DE  26254.94470576 -.00000014  00000-0  25341-3 0  9991
2 07140 102.4334 245.3187 0019768 203.6240 216.5947 12.36339269383371
Epoch: 2026-09-11T22:40Z
TLE epoch observation values (Epoch: 2026-09-11T22:40:22.577Z)
Latitude
57.91814°
Longitude
-106.22372°
Altitude
1,544.239 km
Speed
7.094 km/s
True Right ascension
14h 59m 19s
True Declination
57° 46' 43"
Sunlit
Object was in daylight at epoch
Visualization orbit readout
Latitude
Unknown
Longitude
Unknown
Altitude
Unknown
Speed
Unknown
Apparent Right ascension
Unknown
Apparent Declination
Unknown
Sunlit
N/A
Visualization observer readout
Local Sidereal Time
09:25:49
Azimuth
Unknown
Elevation
Unknown
Doppler factor
Unknown
Orbital elements
Apogee altitude
1,535.378 km
Perigee altitude
1,504.153 km
Semi-major axis
7,897.902 km
Eccentricity
0.00198
Inclination
102.4334°
RAAN
245.3187°
Arg. of periapsis
203.624°
True anomaly
216.45992°
Mean anomaly
216.5947°
Eccentric anomaly
216.52729°
Mean motion
3.09226 °/min
Orbital period
116.42 mins
BSTAR
0.00025341
Loading maneuver chart data...
Computing Atmospheric mass density...
Loading historical data...
Loading historical data...
Loading historical data...
Loading historical data...
Loading historical data...
Loading historical data...
Loading historical data...

Documentation

Showing up to 5 results
|